Tracking 27380 objects as of 6-Jun-2023
HD Live streaming from Space Station
objects crossing your sky now

BREEZE-M DEB

Track BREEZE-M DEB now!
10-day predictions


NORAD ID: 37198
Int'l Code: 2008-011C
Perigee: 518.5 km
Apogee: 26,337.8 km
Inclination: 48.9 °
Period: 462.1 minutes
Semi major axis: 19799 km
RCS: 4.9345 m2 (large)
Launch date: March 14, 2008
Source: Commonwealth of Independent States (former USSR) (CIS)
Launch site: TYURATAM MISSILE AND SPACE COMPLEX (TTMTR)

Note: This is SATELLITE DEBRIS
Your satellite tracking list
Your tracking list is empty




NASA's NSSDC Master Catalog

Two Line Element Set (TLE):
1 37198U 08011C   23156.02171692 -.00000068  00000-0 -36733-3 0  9994
2 37198  48.9251 239.6400 6520282  19.1368 356.9362  3.11625507143660
Source of the keplerian elements: AFSPC